Location: *
(32.8140°S, 174.6161°E)
Time: 21:09:09
(UTC+00:00)

Cosmos 2034 Rocket - Pass Details

Date: 10 December 2019
Orbit: 957 x 1001 km, 82.9° (Epoch: 26 January)

Event Time Altitude Azimuth Distance (km) Brightness Sun altitude
Rises 16:33:40 0° 193° (SSW) 3,673 7.3 -6.8°
Reaches altitude 10° 16:36:15 10° 198° (SSW) 2,724 6.6 -6.3°
Maximum altitude 16:42:13 50° 271° (W) 1,219 4.2 -5.3°
Drops below altitude 10° 16:48:12 10° 345° (NNW) 2,718 5.9 -4.2°
Sets 16:50:47 0° 349° (N) 3,664 6.6 -3.7°
